NOAA 16 DEB

Satellite information

Favourite Embed

Satellite Type and Status

DEBRISIN ORBIT

Key statistics

Satellite NOAA 16 DEB at a glance.

Uptime

9215

Days in orbit

Revolutions

≈ 14.2

Per day

Orbit

SSO

Sun Synchronous Orbit

Inclination

98.8

Latest

Satellite identification and parameters

Extended collection of information and parameters for NOAA 16 DEB.

Object identification

Identified? True

Debris? True

Object name: NOAA 16 DEB

International designator: 2000-055GF

Object number (NORAD): 41279

Object ID (CCSDS): 41279

Country: UNITED STATES OF AMERICA (US)

Current information (Y/N): Y

RCS size: SMALL

Orbital parameters

Period: 101.667 minutes

Inclination: 98.7628 deg

SMA: 7215.728 km

Apoapsis: 860.566 km

Periapsis: 814.621 km

RAAN: 43.3468 deg

Eccentricy: 0.0031837

Argument of periapsis: 91.729 deg

Mean anomaly: 268.7532 deg

Mean motion: 14.16388829 rev/day

Mean motion (dot): 0.00004389 rev/day2

B* drag term: 0.0022189 1/REarth

Two-line elements (TLE)

Creation date: Dec. 12, 2025, 7:16 a.m.

Reference frame: TEME

Reference center: EARTH

Epoch: Dec. 11, 2025, 10:46 p.m. UTC

TLE line 0: 0 NOAA 16 DEB

TLE line 1: 1 41279U 00055GF 25345.94896676 .00004389 00000-0 22189-2 0 9995

TLE line 2: 2 41279 98.7628 43.3468 0031837 91.7290 268.7532 14.16388829512251

Live tracking on map

Real-time ground track for satellite NOAA 16 DEB.

In-orbit conjunctions

A list of the most updated potential collisions computed for object NOAA 16 DEB.

Target Orbit TCA Probability of collision Miss distance Type
SCOUT G-1 DEB SSO 2025-02-05 12:24:41 0.0001258923 83.0 (m) DEBRIS
FENGYUN 1C DEB SSO 2024-09-20 03:07:34 0.0001297451 303.0 (m) DEBRIS

Associated space launch

The NOAA K, L and M POES satellites begin the fifth generation of improved environmental monitoring in support of NOAA missions. The instrument payload has significant improvements and additions/deletions. The instrument changes have effected the spacecraft subsystems and data formats.

NOAA 16 DEB was lifted into orbit during the mission ‘Titan II SLV | NOAA 16’, on board a Titan II SLV space rocket.

The launch took place on Sept. 21, 2000, 10:22 a.m. from Space Launch Complex 4W.

For more information about the launch, click the button.

Launch to space Titan II SLV | NOAA 16
Titan II SLV | NOAA 16

Agency: N/A

Status: Launch Successful

Launch date: Sept. 21, 2000, 10:22 a.m. UTC

Rocket: Titan II SLV

Launch pad: Space Launch Complex 4W

Location: Vandenberg SFB, CA, USA

...

Latest news about this satellite

There are no fresh news available about this satellite. Check back as we update our databases every day.


Newsletter sign-up

Weekly statistics, charts and insights to help you stay on top of the space industry.